DFTBM EDLI-EDMJ

Flight info

Callsign DFTBM
Flight time 0h 55m
Altitude 24000
Route SONOR/N0308F240 IFR Y13 ALEXU N850 GISEM Z10 TESGA L603 BOMBI T104 WLD/N0150VFR VFR
Aircraft TBM9/L-SDFGRWY/SB2

Departure

Time 2026-05-07 16:17
Airport Bielefeld Airport (EDLI)

Arrival

Time 2026-05-07 17:12
Airport Jesenwang Airfield (EDMJ)
Time Latitude Longitude Altitude Speed Heading
2026-05-07 16:09 51.96538 8.54965 456 ft 0 kts 252°
2026-05-07 16:14 51.96543 8.54941 456 ft 4 kts 295°
2026-05-07 16:15 51.96515 8.54917 456 ft 9 kts 148°
2026-05-07 16:15 51.96449 8.54997 457 ft 14 kts 143°
2026-05-07 16:15 51.96358 8.55042 459 ft 11 kts 124°
2026-05-07 16:15 51.96330 8.55138 459 ft 10 kts 114°
2026-05-07 16:16 51.96293 8.55224 458 ft 7 kts 88°
2026-05-07 16:16 51.96312 8.55198 459 ft 19 kts 291°
2026-05-07 16:16 51.96436 8.54663 457 ft 81 kts 291°
2026-05-07 16:16 51.96576 8.53999 558 ft 106 kts 289°
2026-05-07 16:17 51.96825 8.52734 965 ft 122 kts 290°
2026-05-07 16:17 51.96998 8.51333 1437 ft 135 kts 262°
2026-05-07 16:17 51.96422 8.50089 1868 ft 149 kts 209°
2026-05-07 16:17 51.95418 8.49851 2365 ft 148 kts 165°
2026-05-07 16:18 51.94411 8.50247 2925 ft 150 kts 166°
2026-05-07 16:18 51.93396 8.50589 3496 ft 151 kts 167°
2026-05-07 16:18 51.92360 8.50933 4092 ft 153 kts 167°
2026-05-07 16:18 51.91309 8.51279 4718 ft 155 kts 167°
2026-05-07 16:19 51.90238 8.51625 5316 ft 158 kts 167°
2026-05-07 16:19 51.89521 8.51857 5723 ft 159 kts 168°
2026-05-07 16:19 51.88071 8.52323 6544 ft 161 kts 168°
2026-05-07 16:19 51.86968 8.52684 7126 ft 163 kts 168°
2026-05-07 16:20 51.85848 8.53043 7712 ft 165 kts 168°
2026-05-07 16:20 51.84721 8.53406 8304 ft 166 kts 168°
2026-05-07 16:20 51.83581 8.53773 8923 ft 167 kts 169°
2026-05-07 16:20 51.82440 8.54142 9554 ft 167 kts 169°
2026-05-07 16:21 51.81310 8.54506 10157 ft 168 kts 170°
2026-05-07 16:21 51.80160 8.54875 10719 ft 169 kts 170°
2026-05-07 16:21 51.79000 8.55247 11269 ft 171 kts 170°
2026-05-07 16:21 51.77832 8.55622 11860 ft 171 kts 169°
2026-05-07 16:22 51.76660 8.56003 12469 ft 172 kts 170°
2026-05-07 16:22 51.75481 8.56382 13091 ft 173 kts 170°
2026-05-07 16:22 51.74694 8.56634 13511 ft 174 kts 170°
2026-05-07 16:22 51.73089 8.57146 14313 ft 177 kts 171°
2026-05-07 16:23 51.72289 8.57417 14699 ft 178 kts 167°
2026-05-07 16:23 51.70700 8.58280 15486 ft 181 kts 163°
2026-05-07 16:23 51.69905 8.58708 15865 ft 182 kts 164°
2026-05-07 16:23 51.68699 8.59356 16436 ft 183 kts 164°
2026-05-07 16:24 51.67486 8.60010 17007 ft 185 kts 164°
2026-05-07 16:24 51.66262 8.60667 17579 ft 186 kts 165°
2026-05-07 16:24 51.66230 8.60685 17593 ft 186 kts 165°
2026-05-07 16:24 51.66228 8.60686 17594 ft 186 kts 165°
2026-05-07 16:25 51.65321 8.61172 18011 ft 187 kts 165°
2026-05-07 16:25 51.64081 8.61839 18555 ft 188 kts 165°
2026-05-07 16:25 51.62831 8.62511 19051 ft 190 kts 165°
2026-05-07 16:25 51.61573 8.63187 19554 ft 191 kts 165°
2026-05-07 16:26 51.60306 8.63867 20062 ft 193 kts 165°
2026-05-07 16:26 51.59029 8.64551 20579 ft 194 kts 165°
2026-05-07 16:26 51.57743 8.65242 21098 ft 195 kts 165°
2026-05-07 16:26 51.56447 8.65935 21608 ft 197 kts 164°
2026-05-07 16:27 51.55142 8.66633 22138 ft 199 kts 164°
2026-05-07 16:27 51.53845 8.67328 22664 ft 200 kts 164°
2026-05-07 16:27 51.52517 8.68038 23193 ft 202 kts 164°
2026-05-07 16:27 51.51178 8.68753 23703 ft 204 kts 164°
2026-05-07 16:28 51.49813 8.69481 24058 ft 212 kts 164°
2026-05-07 16:28 51.48330 8.70263 24078 ft 236 kts 164°
2026-05-07 16:28 51.46703 8.71123 24082 ft 256 kts 164°
2026-05-07 16:28 51.44959 8.72049 24081 ft 272 kts 163°
2026-05-07 16:29 51.43121 8.73026 24081 ft 284 kts 163°
2026-05-07 16:29 51.41217 8.74040 24079 ft 293 kts 164°
2026-05-07 16:29 51.39255 8.75083 24077 ft 300 kts 164°
2026-05-07 16:29 51.37257 8.76140 24077 ft 305 kts 164°
2026-05-07 16:30 51.35232 8.77216 24076 ft 308 kts 164°
2026-05-07 16:30 51.33190 8.78299 24076 ft 311 kts 163°
2026-05-07 16:30 51.31134 8.79422 24070 ft 313 kts 161°
2026-05-07 16:30 51.29158 8.80791 24061 ft 315 kts 156°
2026-05-07 16:31 51.27175 8.82307 24057 ft 316 kts 157°
2026-05-07 16:31 51.25162 8.83728 24060 ft 316 kts 159°
2026-05-07 16:31 51.23108 8.85116 24054 ft 317 kts 159°
2026-05-07 16:31 51.21113 8.86497 24054 ft 317 kts 158°
2026-05-07 16:32 51.19087 8.87919 24055 ft 317 kts 158°
2026-05-07 16:32 51.17062 8.89332 24055 ft 317 kts 158°
2026-05-07 16:32 51.15031 8.90742 24055 ft 318 kts 159°
2026-05-07 16:32 51.13000 8.92146 24056 ft 318 kts 159°
2026-05-07 16:33 51.10961 8.93558 24054 ft 319 kts 159°
2026-05-07 16:33 51.08925 8.94970 24056 ft 320 kts 159°
2026-05-07 16:33 51.06881 8.96383 24057 ft 320 kts 159°
2026-05-07 16:33 51.04844 8.97791 24056 ft 320 kts 159°
2026-05-07 16:34 51.02798 8.99203 24057 ft 320 kts 159°
2026-05-07 16:34 51.00783 9.00593 24056 ft 320 kts 159°
2026-05-07 16:34 50.98736 9.02004 24059 ft 320 kts 159°
2026-05-07 16:34 50.96697 9.03406 24056 ft 320 kts 158°
2026-05-07 16:35 50.94649 9.04814 24053 ft 320 kts 158°
2026-05-07 16:35 50.92601 9.06223 24052 ft 320 kts 158°
2026-05-07 16:35 50.90562 9.07621 24052 ft 320 kts 158°
2026-05-07 16:35 50.88521 9.09022 24051 ft 320 kts 158°
2026-05-07 16:36 50.86472 9.10425 24049 ft 320 kts 158°
2026-05-07 16:36 50.84431 9.11822 24048 ft 320 kts 158°
2026-05-07 16:36 50.82402 9.13211 24046 ft 319 kts 158°
2026-05-07 16:36 50.80360 9.14602 24044 ft 320 kts 158°
2026-05-07 16:37 50.78320 9.15996 24043 ft 320 kts 158°
2026-05-07 16:37 50.76281 9.17386 24042 ft 319 kts 158°
2026-05-07 16:37 50.74232 9.18782 24041 ft 320 kts 158°
2026-05-07 16:37 50.72223 9.20149 24040 ft 320 kts 158°
2026-05-07 16:38 50.70191 9.21529 24042 ft 320 kts 159°
2026-05-07 16:38 50.68149 9.22916 24042 ft 320 kts 159°
2026-05-07 16:38 50.66080 9.24320 24042 ft 320 kts 159°
2026-05-07 16:38 50.64069 9.25685 24042 ft 320 kts 159°
2026-05-07 16:39 50.62027 9.27067 24039 ft 320 kts 159°
2026-05-07 16:39 50.59984 9.28450 24040 ft 319 kts 159°
2026-05-07 16:39 50.57906 9.29855 24037 ft 319 kts 159°
2026-05-07 16:39 50.55861 9.31236 24042 ft 319 kts 159°
2026-05-07 16:40 50.53849 9.32593 24042 ft 319 kts 159°
2026-05-07 16:40 50.51784 9.33984 24042 ft 319 kts 159°
2026-05-07 16:40 50.49775 9.35337 24036 ft 319 kts 159°
2026-05-07 16:40 50.47735 9.36711 24038 ft 319 kts 159°
2026-05-07 16:41 50.45693 9.38083 24040 ft 319 kts 159°
2026-05-07 16:41 50.43647 9.39456 24038 ft 319 kts 159°
2026-05-07 16:41 50.41603 9.40826 24039 ft 319 kts 159°
2026-05-07 16:41 50.39563 9.42197 24040 ft 319 kts 159°
2026-05-07 16:42 50.37515 9.43568 24037 ft 319 kts 159°
2026-05-07 16:42 50.35468 9.44936 24034 ft 320 kts 159°
2026-05-07 16:42 50.33422 9.46304 24036 ft 319 kts 159°
2026-05-07 16:42 50.31385 9.47666 24035 ft 320 kts 159°
2026-05-07 16:43 50.29330 9.49035 24035 ft 320 kts 159°
2026-05-07 16:43 50.27285 9.50400 24035 ft 320 kts 159°
2026-05-07 16:43 50.25237 9.51763 24038 ft 319 kts 159°
2026-05-07 16:43 50.23190 9.53124 24036 ft 320 kts 159°
2026-05-07 16:44 50.21142 9.54485 24040 ft 320 kts 159°
2026-05-07 16:44 50.19098 9.55842 24038 ft 320 kts 159°
2026-05-07 16:44 50.17047 9.57204 24039 ft 320 kts 159°
2026-05-07 16:44 50.14995 9.58563 24040 ft 320 kts 159°
2026-05-07 16:45 50.12942 9.59923 24038 ft 321 kts 159°
2026-05-07 16:45 50.10889 9.61280 24039 ft 321 kts 159°
2026-05-07 16:45 50.08834 9.62639 24039 ft 320 kts 159°
2026-05-07 16:45 50.06784 9.63994 24041 ft 320 kts 159°
2026-05-07 16:46 50.04756 9.65328 24039 ft 320 kts 159°
2026-05-07 16:46 50.02676 9.66700 24037 ft 320 kts 159°
2026-05-07 16:46 50.00656 9.68032 24043 ft 320 kts 159°
2026-05-07 16:46 49.98600 9.69383 24039 ft 320 kts 159°
2026-05-07 16:47 49.96542 9.70733 24036 ft 321 kts 159°
2026-05-07 16:47 49.94485 9.72087 24035 ft 321 kts 159°
2026-05-07 16:47 49.92436 9.73432 24035 ft 321 kts 159°
2026-05-07 16:47 49.90371 9.74783 24038 ft 321 kts 159°
2026-05-07 16:48 49.88311 9.76132 24036 ft 321 kts 159°
2026-05-07 16:48 49.86256 9.77478 24036 ft 321 kts 159°
2026-05-07 16:48 49.84199 9.78821 24036 ft 321 kts 159°
2026-05-07 16:48 49.82150 9.80159 24035 ft 321 kts 159°
2026-05-07 16:49 49.80146 9.81707 24034 ft 322 kts 152°
2026-05-07 16:49 49.78251 9.83584 24036 ft 322 kts 148°
2026-05-07 16:49 49.76375 9.85485 24039 ft 322 kts 150°
2026-05-07 16:49 49.74448 9.87252 24041 ft 321 kts 153°
2026-05-07 16:50 49.72514 9.88966 24041 ft 320 kts 152°
2026-05-07 16:50 49.70603 9.90731 24037 ft 321 kts 151°
2026-05-07 16:50 49.68692 9.92519 24039 ft 321 kts 151°
2026-05-07 16:50 49.66798 9.94262 24038 ft 321 kts 152°
2026-05-07 16:51 49.64869 9.96025 24038 ft 321 kts 152°
2026-05-07 16:51 49.62968 9.97770 24039 ft 322 kts 152°
2026-05-07 16:51 49.61046 9.99535 24040 ft 323 kts 152°
2026-05-07 16:51 49.59112 10.01308 24040 ft 323 kts 152°
2026-05-07 16:52 49.57180 10.03079 24039 ft 323 kts 152°
2026-05-07 16:52 49.55251 10.04843 24039 ft 323 kts 152°
2026-05-07 16:52 49.53318 10.06611 24039 ft 323 kts 152°
2026-05-07 16:52 49.51383 10.08380 24041 ft 324 kts 152°
2026-05-07 16:53 49.49440 10.10150 24039 ft 325 kts 152°
2026-05-07 16:53 49.47496 10.11920 24037 ft 325 kts 152°
2026-05-07 16:53 49.45546 10.13697 24039 ft 326 kts 152°
2026-05-07 16:53 49.43595 10.15473 24039 ft 326 kts 152°
2026-05-07 16:54 49.41642 10.17248 24041 ft 326 kts 152°
2026-05-07 16:54 49.39686 10.19025 24042 ft 326 kts 152°
2026-05-07 16:54 49.37731 10.20798 24047 ft 326 kts 152°
2026-05-07 16:54 49.35774 10.22573 24044 ft 326 kts 153°
2026-05-07 16:55 49.33815 10.24345 24048 ft 326 kts 153°
2026-05-07 16:55 49.31860 10.26114 24047 ft 326 kts 152°
2026-05-07 16:55 49.29959 10.27833 24052 ft 327 kts 152°
2026-05-07 16:55 49.28005 10.29599 24052 ft 327 kts 153°
2026-05-07 16:56 49.26040 10.31373 24052 ft 329 kts 153°
2026-05-07 16:56 49.24061 10.33154 24053 ft 330 kts 153°
2026-05-07 16:56 49.20098 10.36722 24074 ft 331 kts 153°
2026-05-07 16:57 49.18110 10.38506 24067 ft 331 kts 153°
2026-05-07 16:57 49.16126 10.40288 24067 ft 331 kts 153°
2026-05-07 16:57 49.14130 10.42079 23897 ft 337 kts 153°
2026-05-07 16:57 49.12070 10.43910 23452 ft 346 kts 153°
2026-05-07 16:58 49.09983 10.45775 22985 ft 348 kts 153°
2026-05-07 16:58 49.07895 10.47650 22535 ft 348 kts 153°
2026-05-07 16:58 49.05807 10.49519 22075 ft 349 kts 153°
2026-05-07 16:58 49.03711 10.51387 21598 ft 348 kts 153°
2026-05-07 16:59 49.01620 10.53249 21144 ft 348 kts 153°
2026-05-07 16:59 48.99528 10.55114 20685 ft 349 kts 153°
2026-05-07 16:59 48.97423 10.56986 20220 ft 349 kts 153°
2026-05-07 16:59 48.95347 10.58836 19764 ft 350 kts 153°
2026-05-07 17:00 48.93245 10.60706 19301 ft 350 kts 153°
2026-05-07 17:00 48.91139 10.62571 18836 ft 350 kts 154°
2026-05-07 17:00 48.89035 10.64435 18371 ft 349 kts 153°
2026-05-07 17:00 48.86945 10.66289 17877 ft 347 kts 153°
2026-05-07 17:01 48.84867 10.68126 17411 ft 344 kts 153°
2026-05-07 17:01 48.82805 10.69950 16956 ft 341 kts 153°
2026-05-07 17:01 48.80760 10.71755 16501 ft 339 kts 153°
2026-05-07 17:01 48.78726 10.73550 16050 ft 336 kts 154°
2026-05-07 17:02 48.76713 10.75328 15607 ft 334 kts 154°
2026-05-07 17:02 48.74707 10.77090 15160 ft 331 kts 154°
2026-05-07 17:02 48.72720 10.78839 14724 ft 329 kts 154°
2026-05-07 17:02 48.70763 10.80560 14291 ft 327 kts 154°
2026-05-07 17:03 48.68808 10.82278 13858 ft 324 kts 154°
2026-05-07 17:03 48.66859 10.83986 13374 ft 322 kts 154°
2026-05-07 17:03 48.64961 10.85650 12949 ft 319 kts 154°
2026-05-07 17:03 48.63017 10.87355 12523 ft 317 kts 154°
2026-05-07 17:04 48.61140 10.88995 12112 ft 315 kts 154°
2026-05-07 17:04 48.59260 10.90640 11700 ft 314 kts 154°
2026-05-07 17:04 48.57359 10.92301 11291 ft 313 kts 154°
2026-05-07 17:04 48.55473 10.93945 10859 ft 312 kts 154°
2026-05-07 17:05 48.53618 10.95564 10457 ft 310 kts 154°
2026-05-07 17:05 48.51753 10.97189 10044 ft 308 kts 154°
2026-05-07 17:05 48.49903 10.98797 9644 ft 307 kts 154°
2026-05-07 17:05 48.48068 11.00393 9234 ft 304 kts 154°
2026-05-07 17:06 48.46249 11.01976 8836 ft 302 kts 154°
2026-05-07 17:06 48.44421 11.03565 8434 ft 301 kts 154°
2026-05-07 17:06 48.42608 11.05137 8038 ft 299 kts 154°
2026-05-07 17:06 48.40808 11.06696 7637 ft 298 kts 153°
2026-05-07 17:07 48.39616 11.07732 7380 ft 297 kts 153°
2026-05-07 17:07 48.37842 11.09264 6992 ft 297 kts 153°
2026-05-07 17:07 48.36046 11.10817 6584 ft 294 kts 153°
2026-05-07 17:07 48.33704 11.12845 6064 ft 291 kts 153°
2026-05-07 17:08 48.32089 11.14237 5705 ft 289 kts 153°
2026-05-07 17:08 48.30917 11.15245 5447 ft 287 kts 152°
2026-05-07 17:08 48.29185 11.16743 5067 ft 286 kts 152°
2026-05-07 17:08 48.27459 11.18237 4683 ft 286 kts 152°
2026-05-07 17:09 48.25791 11.19665 4300 ft 284 kts 152°
2026-05-07 17:09 48.24079 11.21135 3925 ft 283 kts 152°
2026-05-07 17:09 48.22289 11.22292 3563 ft 283 kts 170°
2026-05-07 17:09 48.20415 11.22143 3211 ft 253 kts 201°
2026-05-07 17:10 48.19118 11.20795 2958 ft 209 kts 235°
2026-05-07 17:10 48.18570 11.18995 2759 ft 173 kts 257°
2026-05-07 17:10 48.18328 11.17442 2540 ft 142 kts 261°
2026-05-07 17:10 48.18153 11.16327 2380 ft 94 kts 261°
2026-05-07 17:11 48.18000 11.15459 2251 ft 83 kts 259°
2026-05-07 17:11 48.17850 11.14661 2133 ft 76 kts 261°
2026-05-07 17:11 48.17824 11.14527 2117 ft 77 kts 260°
2026-05-07 17:12 48.17736 11.14096 2070 ft 79 kts 261°
2026-05-07 17:12 48.17614 11.13436 1967 ft 83 kts 262°
2026-05-07 17:12 48.17484 11.12779 1875 ft 78 kts 259°
2026-05-07 17:12 48.17394 11.12348 1871 ft 2 kts 246°
2026-05-07 17:13 48.17379 11.12275 1872 ft 10 kts 244°
2026-05-07 17:13 48.17358 11.12278 1872 ft 6 kts 121°
2026-05-07 17:13 48.17366 11.12351 1872 ft 10 kts 71°
2026-05-07 17:13 48.17388 11.12442 1872 ft 12 kts 71°
2026-05-07 17:14 48.17377 11.12464 1872 ft 3 kts 280°
2026-05-07 17:14 48.17378 11.12461 1872 ft 0 kts 313°